Location: La Pernelle
(49.6188°N, 1.2999°W)
Time: 09:12:16
(UTC+00:00)

Cosmos 1378 Rocket - Pass Details

Date: 12 June 2021
Orbit: 601 x 627 km, 82.5° (Epoch: 01 August)

Event Time Altitude Azimuth Distance (km) Brightness Sun altitude
Rises 21:08:52 0° 188° (S) 2,848 6.6 -7.3°
Reaches altitude 10° 21:11:03 10° 188° (S) 1,953 5.7 -7.6°
Maximum altitude 21:15:23 89° 108° (ESE) 618 3.6 -8.0°
Drops below altitude 10° 21:19:47 10° 10° (N) 1,984 6.8 -8.4°
Sets 21:22:01 0° 11° (N) 2,899 7.7 -8.7°
